Content
SEND FEEDBACK

Daily
Averages
Monthly
Summary
United States of America

HAY SPRINGS, NEBRASKA


Home > North America > United States > Nebraska
Elevation: 3839 feet     Latitude: 42 41N     Longitude: 102 41W

WEATHER
 
SELECT A DAY
Number of Records: 169,906;   Date Range: 1/1/95 - 7/27/14
 
SHARE

PRINT THIS DATA

[ ← Previous Day ]
WEATHER ALMANAC - JANUARY 31, 2013
[ Next Day → ]
[ °C ]   °F
Weather ElementAverageHighLow
Temperature11.8 °F19.9 °F (3:53 pm)6.8 °F (8:15 am)
Dewpoint6 °F14 °F (11:53 pm)1.4 °F (9:09 am)
Humidity78 %85 % (5:18 am)65 % (2:53 pm)
Barometer30.22 in30.40 in (10:52 am)29.91 in (1:01 am)
Wind Speed6.4 mph12.7 mph (1:01 am)
Weather ElementAverage
Visibility4.4 mi
Wind DirectionESE (98.8 °)

Weather ElementTotal
Precipitation0.07 in
Heating Degree Days51.7 (Base 65)
Averaged from 48 records on January 31, 2013
WEATHER CONDITIONS BREAKOUT
WIND DIRECTION BREAKOUT
WEATHER BY HOUR - JANUARY 31, 2013
[ °C ]   °F
Local TimeTemperatureDewpointHumidityBarometerVisibilityWind DirectionWind SpeedGust SpeedPrecipitationEventsConditions
1:01 AM19.4 °F12.2 °F74 %29.91 in9.0 miNE (40°)12.7 mphOvercast
1:53 AM17.1 °F12.0 °F81 %30.08 in8.0 miNNE (30°)5.8 mphOvercast
2:53 AM16.0 °F10.9 °F81 %30.10 in9.0 miNE (50°)9.2 mphOvercast
3:53 AM14.0 °F10.0 °F84 %30.11 in9.0 miENE (60°)12.7 mphOvercast
4:53 AM12.0 °F7.0 °F80 %30.17 in7.0 miNE (50°)12.7 mphOvercast
5:18 AM10.4 °F6.8 °F85 %30.03 in4.0 miNE (50°)11.5 mph0.00 inHaze
5:53 AM10.9 °F6.1 °F81 %30.22 in4.0 miNE (40°)8.1 mph0.00 inHaze
6:01 AM10.4 °F6.8 °F85 %30.06 in1.8 miNE (50°)6.9 mph0.00 inSnowLight Snow
6:22 AM10.4 °F6.8 °F85 %30.07 in1.0 miNE (50°)8.1 mph0.00 inSnowLight Snow
6:29 AM10.4 °F6.8 °F85 %30.08 in0.8 miNE (40°)8.1 mph0.00 inSnowLight Snow
6:40 AM10.4 °F6.8 °F85 %30.10 in0.8 miNNE (20°)4.6 mph0.00 inSnowLight Snow
6:53 AM10.0 °F6.1 °F84 %30.30 in0.8 miNE (40°)5.8 mph0.00 inSnowLight Snow
7:53 AM8.1 °F3.9 °F83 %30.37 in0.8 miNE (40°)8.1 mph0.00 inSnowLight Snow
7:59 AM8.6 °F3.2 °F79 %30.16 in1.0 miNE (50°)11.5 mph0.00 inSnowLight Snow
8:15 AM6.8 °F3.2 °F85 %30.17 in0.5 miENE (60°)10.4 mph0.00 inFog-SnowLight Snow
8:27 AM6.8 °F3.2 °F85 %30.18 in0.2 miNE (50°)10.4 mph0.00 inFog-SnowSnow
8:40 AM6.8 °F3.2 °F85 %30.18 in0.8 miENE (70°)6.9 mph0.00 inSnowLight Snow
8:47 AM6.8 °F3.2 °F85 %30.19 in1.0 miENE (70°)6.9 mph0.00 inSnowLight Snow
8:53 AM7.0 °F1.9 °F80 %30.36 in1.0 miENE (60°)5.8 mph0.00 inSnowLight Snow
9:09 AM6.8 °F1.4 °F79 %30.21 in0.5 miENE (60°)5.8 mph0.00 inSnowSnow
9:53 AM8.1 °F3.0 °F80 %30.39 in0.8 miNE (50°)5.8 mph0.00 inSnowLight Snow
10:12 AM6.8 °F1.4 °F79 %30.22 in1.0 miNE (50°)5.8 mph0.00 inSnowLight Snow
10:24 AM6.8 °F1.4 °F79 %30.21 in1.8 miENE (60°)4.6 mph0.00 inSnowLight Snow
10:29 AM8.6 °F1.4 °F73 %30.22 in2.5 miNE (50°)4.6 mph0.00 inSnowLight Snow
10:36 AM6.8 °F1.4 °F79 %30.22 in2.5 miNE (40°)4.6 mph0.00 inHaze
10:51 AM8.6 °F1.4 °F73 %30.22 in0.8 miNNE (30°)4.6 mph0.00 inSnowLight Snow
10:52 AM8.1 °F1.9 °F76 %30.40 in0.8 miNE (40°)5.8 mph0.00 inSnowLight Snow
11:09 AM8.6 °F3.2 °F79 %30.22 in1.0 miEast (80°)5.8 mph0.00 inSnowLight Snow
11:34 AM8.6 °F3.2 °F79 %30.22 in1.2 miENE (70°)5.8 mph0.00 inHaze
11:45 AM8.6 °F3.2 °F79 %30.20 in2.5 miESE (110°)3.5 mph0.00 inSnowLight Snow
11:53 AM8.1 °F1.9 °F76 %30.39 in1.8 miEast (100°)4.6 mph0.00 inSnowLight Snow
11:57 AM8.6 °F3.2 °F79 %30.20 in2.0 miCalm0.00 inSnowLight Snow
12:08 PM8.6 °F3.2 °F79 %30.20 in4.0 miEast (100°)3.5 mph0.00 inHaze
12:42 PM10.4 °F3.2 °F73 %30.18 in2.5 miCalm0.01 inHaze
12:51 PM10.4 °F3.2 °F73 %30.18 in4.0 miCalm0.01 inHaze
12:53 PM10.0 °F3.9 °F76 %30.36 in5.0 miCalm0.01 inHaze
1:39 PM15.8 °F6.8 °F68 %30.17 in9.0 miWest (280°)6.9 mph0.02 inOvercast
1:53 PM16.0 °F7.0 °F68 %30.34 in9.0 miWNW (290°)10.4 mph0.02 inOvercast
2:53 PM19.0 °F9.0 °F65 %30.33 in9.0 miWNW (300°)9.2 mphOvercast
3:53 PM19.9 °F10.0 °F65 %30.31 in9.0 miWNW (300°)6.9 mphOvercast
4:53 PM19.9 °F10.9 °F68 %30.31 in10.0 miNW (310°)5.8 mphOvercast
5:53 PM19.0 °F10.9 °F71 %30.31 in10.0 miWNW (290°)5.8 mphOvercast
6:53 PM19.0 °F12.0 °F74 %30.32 in10.0 miCalmOvercast
7:53 PM18.0 °F12.0 °F78 %30.33 in10.0 miWSW (240°)4.6 mphOvercast
8:53 PM17.1 °F10.9 °F77 %30.34 in10.0 miWest (260°)4.6 mphOvercast
9:53 PM17.1 °F10.9 °F77 %30.31 in10.0 miWSW (240°)6.9 mphOvercast
10:53 PM19.0 °F12.0 °F74 %30.27 in10.0 miSW (220°)5.8 mphOvercast
11:53 PM19.9 °F14.0 °F78 %30.25 in10.0 miWSW (250°)8.1 mphOvercast
Hourly data recorded from KCDR, located miles away from Hay Springs, Nebraska







STORIES FROM OUR PARTNERS